ITY77G LICA-LBSF

Flight info

Callsign ITY77G
Flight time 1h 12m
Altitude 34000
Route CDC L869 KOGEB DCT CRN DCT GEMVI DCT GOKEL/N0445F350 DCT DOBAR DCT NASKO P127 VELBA T343 MOREK
Aircraft A320/M-SDE3FGHIRWY/LB1

Departure

Time 2026-04-16 11:41
Airport Lamezia Terme Sant'Eufemia International Airport (LICA)

Arrival

Time 2026-04-16 12:53
Airport Sofia Airport (LBSF)
Time Latitude Longitude Altitude Speed Heading
2026-04-16 11:32 38.90827 16.24911 31 ft 0 kts 53°
2026-04-16 11:36 38.90827 16.24912 31 ft 1 kts 53°
2026-04-16 11:37 38.90822 16.24925 31 ft 4 kts 130°
2026-04-16 11:37 38.90787 16.24916 32 ft 8 kts 205°
2026-04-16 11:37 38.90716 16.24930 32 ft 14 kts 146°
2026-04-16 11:37 38.90667 16.25056 33 ft 19 kts 93°
2026-04-16 11:38 38.90645 16.25254 33 ft 25 kts 98°
2026-04-16 11:38 38.90616 16.25503 33 ft 31 kts 98°
2026-04-16 11:38 38.90581 16.25803 32 ft 36 kts 98°
2026-04-16 11:38 38.90551 16.26066 32 ft 27 kts 98°
2026-04-16 11:39 38.90467 16.26216 31 ft 22 kts 154°
2026-04-16 11:39 38.90357 16.26273 33 ft 12 kts 181°
2026-04-16 11:39 38.90309 16.26210 35 ft 11 kts 272°
2026-04-16 11:39 38.90312 16.26182 35 ft 0 kts 277°
2026-04-16 11:40 38.90313 16.26175 34 ft 5 kts 277°
2026-04-16 11:40 38.90360 16.25766 33 ft 92 kts 278°
2026-04-16 11:40 38.90485 16.24636 105 ft 156 kts 277°
2026-04-16 11:41 38.90624 16.23297 1021 ft 150 kts 271°
2026-04-16 11:41 38.90343 16.22058 1834 ft 142 kts 229°
2026-04-16 11:41 38.89525 16.21411 2260 ft 149 kts 187°
2026-04-16 11:41 38.88507 16.21678 2681 ft 147 kts 136°
2026-04-16 11:42 38.87909 16.22636 3293 ft 141 kts 118°
2026-04-16 11:42 38.87634 16.23918 3585 ft 158 kts 94°
2026-04-16 11:42 38.87557 16.25420 3879 ft 180 kts 94°
2026-04-16 11:42 38.87462 16.27140 4162 ft 205 kts 95°
2026-04-16 11:43 38.87341 16.29055 4553 ft 229 kts 95°
2026-04-16 11:43 38.87193 16.31208 4976 ft 253 kts 96°
2026-04-16 11:43 38.87022 16.33496 5676 ft 263 kts 96°
2026-04-16 11:43 38.87125 16.35873 6575 ft 267 kts 78°
2026-04-16 11:44 38.87513 16.38186 7443 ft 269 kts 79°
2026-04-16 11:44 38.87923 16.40555 8305 ft 274 kts 80°
2026-04-16 11:44 38.88343 16.42963 9168 ft 278 kts 80°
2026-04-16 11:44 38.88768 16.45412 10045 ft 282 kts 80°
2026-04-16 11:45 38.89199 16.47918 10454 ft 302 kts 79°
2026-04-16 11:45 38.89669 16.50656 10707 ft 325 kts 79°
2026-04-16 11:45 38.90169 16.53555 11227 ft 337 kts 79°
2026-04-16 11:45 38.90678 16.56503 11976 ft 341 kts 79°
2026-04-16 11:46 38.91188 16.59467 12745 ft 344 kts 78°
2026-04-16 11:46 38.91704 16.62473 13546 ft 346 kts 78°
2026-04-16 11:46 38.92226 16.65506 14249 ft 350 kts 78°
2026-04-16 11:46 38.92753 16.68577 14899 ft 353 kts 78°
2026-04-16 11:47 38.93280 16.71671 15569 ft 356 kts 78°
2026-04-16 11:47 38.93811 16.74796 16181 ft 360 kts 78°
2026-04-16 11:47 38.94351 16.77961 16811 ft 364 kts 78°
2026-04-16 11:47 38.94890 16.81113 17457 ft 367 kts 78°
2026-04-16 11:48 38.95436 16.84330 18071 ft 371 kts 78°
2026-04-16 11:48 38.95985 16.87587 18650 ft 374 kts 78°
2026-04-16 11:48 38.96538 16.90869 19194 ft 377 kts 78°
2026-04-16 11:48 38.97096 16.94183 19738 ft 381 kts 79°
2026-04-16 11:49 38.97660 16.97532 20298 ft 384 kts 79°
2026-04-16 11:49 38.98220 17.00860 20823 ft 387 kts 79°
2026-04-16 11:49 38.98792 17.04275 21369 ft 391 kts 79°
2026-04-16 11:49 38.99366 17.07710 21904 ft 394 kts 79°
2026-04-16 11:50 38.99942 17.11170 22419 ft 397 kts 80°
2026-04-16 11:50 39.00515 17.14620 22936 ft 400 kts 80°
2026-04-16 11:50 39.01100 17.18138 23417 ft 404 kts 80°
2026-04-16 11:50 39.01693 17.21691 23852 ft 407 kts 80°
2026-04-16 11:51 39.02288 17.25260 24267 ft 409 kts 80°
2026-04-16 11:51 39.02880 17.28846 24677 ft 411 kts 80°
2026-04-16 11:51 39.03469 17.32430 25088 ft 412 kts 80°
2026-04-16 11:51 39.04057 17.36021 25484 ft 414 kts 80°
2026-04-16 11:52 39.04652 17.39660 25886 ft 415 kts 80°
2026-04-16 11:52 39.05478 17.43239 26250 ft 420 kts 67°
2026-04-16 11:52 39.07056 17.46424 26626 ft 427 kts 51°
2026-04-16 11:52 39.09136 17.49152 26997 ft 430 kts 47°
2026-04-16 11:53 39.11275 17.51870 27364 ft 431 kts 47°
2026-04-16 11:53 39.13401 17.54562 27725 ft 433 kts 47°
2026-04-16 11:53 39.15545 17.57285 28055 ft 435 kts 47°
2026-04-16 11:53 39.17719 17.60059 28401 ft 436 kts 47°
2026-04-16 11:54 39.19855 17.62791 28720 ft 438 kts 47°
2026-04-16 11:54 39.22013 17.65556 29042 ft 440 kts 47°
2026-04-16 11:54 39.24185 17.68348 29345 ft 441 kts 47°
2026-04-16 11:54 39.26365 17.71152 29641 ft 443 kts 47°
2026-04-16 11:55 39.28557 17.73974 29927 ft 445 kts 47°
2026-04-16 11:55 39.30739 17.76783 30164 ft 446 kts 47°
2026-04-16 11:55 39.32946 17.79625 30383 ft 448 kts 47°
2026-04-16 11:55 39.35150 17.82462 30624 ft 449 kts 47°
2026-04-16 11:56 39.37369 17.85317 30922 ft 448 kts 47°
2026-04-16 11:56 39.39561 17.88144 31220 ft 447 kts 47°
2026-04-16 11:56 39.41758 17.90981 31512 ft 446 kts 47°
2026-04-16 11:56 39.43960 17.93827 31813 ft 446 kts 47°
2026-04-16 11:57 39.46152 17.96664 32105 ft 445 kts 47°
2026-04-16 11:57 39.48337 17.99497 32404 ft 444 kts 47°
2026-04-16 11:57 39.50502 18.02306 32685 ft 444 kts 48°
2026-04-16 11:57 39.52698 18.05161 32962 ft 444 kts 48°
2026-04-16 11:58 39.54876 18.07995 33259 ft 444 kts 48°
2026-04-16 11:58 39.57036 18.10803 33559 ft 443 kts 48°
2026-04-16 11:58 39.59213 18.13633 33865 ft 442 kts 48°
2026-04-16 11:58 39.61382 18.16460 34014 ft 441 kts 48°
2026-04-16 11:59 39.63541 18.19276 34037 ft 439 kts 48°
2026-04-16 11:59 39.67851 18.24912 34029 ft 445 kts 48°
2026-04-16 12:00 39.72249 18.30674 34037 ft 454 kts 48°
2026-04-16 12:00 39.76718 18.36534 34040 ft 460 kts 48°
2026-04-16 12:01 39.81260 18.42493 34039 ft 464 kts 48°
2026-04-16 12:01 39.85807 18.48469 34022 ft 463 kts 47°
2026-04-16 12:02 39.92562 18.57391 34031 ft 462 kts 47°
2026-04-16 12:02 39.97059 18.63348 34033 ft 462 kts 47°
2026-04-16 12:03 40.01577 18.69350 34048 ft 462 kts 47°
2026-04-16 12:03 40.06083 18.75341 34036 ft 462 kts 48°
2026-04-16 12:04 40.10579 18.81313 34023 ft 464 kts 47°
2026-04-16 12:04 40.15116 18.87350 34037 ft 469 kts 48°
2026-04-16 12:05 40.19687 18.93459 34037 ft 471 kts 48°
2026-04-16 12:05 40.24268 18.99607 34029 ft 472 kts 48°
2026-04-16 12:06 40.28852 19.05762 34030 ft 472 kts 47°
2026-04-16 12:06 40.33424 19.11902 34031 ft 472 kts 48°
2026-04-16 12:07 40.38011 19.18083 34024 ft 478 kts 48°
2026-04-16 12:07 40.42646 19.24345 34027 ft 481 kts 48°
2026-04-16 12:08 40.47317 19.30657 34018 ft 482 kts 48°
2026-04-16 12:08 40.51996 19.36997 34018 ft 482 kts 48°
2026-04-16 12:09 40.56639 19.43310 34016 ft 482 kts 47°
2026-04-16 12:09 40.61303 19.49673 34000 ft 482 kts 48°
2026-04-16 12:10 40.65949 19.56015 33991 ft 483 kts 48°
2026-04-16 12:10 40.70630 19.62421 33981 ft 484 kts 48°
2026-04-16 12:11 40.75282 19.68801 33976 ft 485 kts 48°
2026-04-16 12:11 40.79973 19.75244 33980 ft 486 kts 48°
2026-04-16 12:12 40.84662 19.81678 33981 ft 486 kts 49°
2026-04-16 12:12 40.89333 19.88121 33978 ft 488 kts 49°
2026-04-16 12:13 40.94025 19.94619 33980 ft 489 kts 49°
2026-04-16 12:13 40.98743 20.01155 33986 ft 490 kts 49°
2026-04-16 12:14 41.03445 20.07671 34016 ft 491 kts 49°
2026-04-16 12:14 41.08141 20.14209 34031 ft 492 kts 49°
2026-04-16 12:15 41.12849 20.20798 34046 ft 492 kts 49°
2026-04-16 12:15 41.17541 20.27363 34050 ft 491 kts 49°
2026-04-16 12:16 41.22243 20.33950 34061 ft 491 kts 49°
2026-04-16 12:16 41.26933 20.40530 34061 ft 490 kts 49°
2026-04-16 12:17 41.31534 20.47179 34048 ft 488 kts 55°
2026-04-16 12:17 41.34821 20.54977 34059 ft 481 kts 72°
2026-04-16 12:18 41.37138 20.63322 34097 ft 481 kts 72°
2026-04-16 12:18 41.39461 20.71643 34103 ft 482 kts 72°
2026-04-16 12:19 41.41787 20.80032 34105 ft 481 kts 72°
2026-04-16 12:19 41.44079 20.88360 34102 ft 481 kts 72°
2026-04-16 12:20 41.46378 20.96752 34116 ft 481 kts 72°
2026-04-16 12:20 41.48675 21.05151 34112 ft 481 kts 72°
2026-04-16 12:21 41.50961 21.13496 34123 ft 481 kts 72°
2026-04-16 12:21 41.53253 21.21916 34103 ft 482 kts 72°
2026-04-16 12:22 41.55522 21.30290 34110 ft 482 kts 72°
2026-04-16 12:22 41.57423 21.37324 34115 ft 483 kts 72°
2026-04-16 12:23 41.59697 21.45738 34112 ft 483 kts 72°
2026-04-16 12:23 41.62379 21.53996 34119 ft 486 kts 60°
2026-04-16 12:24 41.65851 21.61708 34108 ft 486 kts 60°
2026-04-16 12:24 41.69360 21.69453 34114 ft 486 kts 60°
2026-04-16 12:25 41.72843 21.77179 34117 ft 486 kts 60°
2026-04-16 12:25 41.76334 21.84988 34107 ft 487 kts 60°
2026-04-16 12:26 41.79810 21.92764 34101 ft 488 kts 60°
2026-04-16 12:26 41.83297 22.00589 34105 ft 488 kts 60°
2026-04-16 12:27 41.86759 22.08375 34109 ft 489 kts 60°
2026-04-16 12:27 41.90239 22.16224 34087 ft 490 kts 60°
2026-04-16 12:28 41.93727 22.24123 34100 ft 491 kts 60°
2026-04-16 12:28 41.97212 22.32024 34118 ft 491 kts 60°
2026-04-16 12:29 42.00686 22.39907 34128 ft 492 kts 59°
2026-04-16 12:29 42.04177 22.47848 34102 ft 492 kts 59°
2026-04-16 12:30 42.05885 22.51751 33562 ft 488 kts 59°
2026-04-16 12:30 42.07607 22.55696 32606 ft 486 kts 59°
2026-04-16 12:30 42.09314 22.59614 31801 ft 483 kts 59°
2026-04-16 12:30 42.11003 22.63499 31094 ft 479 kts 59°
2026-04-16 12:31 42.12684 22.67363 30436 ft 474 kts 59°
2026-04-16 12:31 42.14347 22.71186 29709 ft 470 kts 59°
2026-04-16 12:31 42.15992 22.74966 29026 ft 465 kts 59°
2026-04-16 12:31 42.17616 22.78704 28382 ft 459 kts 59°
2026-04-16 12:32 42.19205 22.82365 27762 ft 454 kts 59°
2026-04-16 12:32 42.20786 22.86020 27170 ft 449 kts 59°
2026-04-16 12:32 42.22348 22.89636 26606 ft 444 kts 59°
2026-04-16 12:32 42.23896 22.93217 26054 ft 438 kts 59°
2026-04-16 12:33 42.25422 22.96743 25513 ft 433 kts 59°
2026-04-16 12:33 42.26937 23.00258 24988 ft 428 kts 59°
2026-04-16 12:33 42.28417 23.03699 24462 ft 423 kts 59°
2026-04-16 12:33 42.29885 23.07117 23935 ft 419 kts 59°
2026-04-16 12:34 42.31341 23.10509 23361 ft 415 kts 60°
2026-04-16 12:34 42.32793 23.13885 22786 ft 411 kts 58°
2026-04-16 12:34 42.34367 23.16988 21898 ft 402 kts 54°
2026-04-16 12:34 42.36006 23.19998 20982 ft 395 kts 53°
2026-04-16 12:35 42.37652 23.22953 20094 ft 388 kts 53°
2026-04-16 12:35 42.39323 23.25779 19242 ft 381 kts 45°
2026-04-16 12:35 42.41449 23.27853 18437 ft 375 kts 26°
2026-04-16 12:35 42.43894 23.28821 17499 ft 371 kts
2026-04-16 12:36 42.46461 23.28840 16527 ft 368 kts 352°
2026-04-16 12:36 42.48897 23.27810 15610 ft 365 kts 333°
2026-04-16 12:36 42.51022 23.25941 14699 ft 362 kts 324°
2026-04-16 12:36 42.53047 23.23978 13794 ft 360 kts 323°
2026-04-16 12:37 42.55065 23.22004 12860 ft 355 kts 324°
2026-04-16 12:37 42.57046 23.20063 11984 ft 348 kts 324°
2026-04-16 12:37 42.58970 23.18182 11155 ft 342 kts 324°
2026-04-16 12:37 42.60877 23.16319 10265 ft 338 kts 324°
2026-04-16 12:38 42.62776 23.14463 9347 ft 333 kts 324°
2026-04-16 12:38 42.64646 23.12636 8428 ft 328 kts 325°
2026-04-16 12:38 42.66561 23.11006 7516 ft 322 kts 340°
2026-04-16 12:38 42.68720 23.10634 6712 ft 310 kts 10°
2026-04-16 12:39 42.70631 23.11746 5935 ft 302 kts 40°
2026-04-16 12:39 42.71771 23.14009 5455 ft 283 kts 74°
2026-04-16 12:39 42.71788 23.16552 5136 ft 264 kts 107°
2026-04-16 12:39 42.71007 23.18748 4815 ft 248 kts 113°
2026-04-16 12:40 42.70703 23.20912 4520 ft 228 kts 87°
2026-04-16 12:40 42.70728 23.22957 4248 ft 202 kts 92°
2026-04-16 12:40 42.70643 23.24755 3971 ft 179 kts 94°
2026-04-16 12:40 42.70554 23.26300 3750 ft 157 kts 94°
2026-04-16 12:41 42.70471 23.27718 3539 ft 143 kts 94°
2026-04-16 12:41 42.70394 23.29047 3348 ft 140 kts 93°
2026-04-16 12:41 42.70316 23.30371 3157 ft 140 kts 93°
2026-04-16 12:41 42.70239 23.31691 2961 ft 139 kts 94°
2026-04-16 12:42 42.70163 23.32988 2797 ft 138 kts 93°
2026-04-16 12:42 42.70086 23.34284 2625 ft 139 kts 94°
2026-04-16 12:42 42.70010 23.35573 2443 ft 136 kts 94°
2026-04-16 12:42 42.69937 23.36853 2231 ft 134 kts 94°
2026-04-16 12:43 42.69866 23.38128 2057 ft 137 kts 98°
2026-04-16 12:43 42.69785 23.39421 1874 ft 137 kts 96°
2026-04-16 12:43 42.69710 23.40694 1780 ft 133 kts 97°
2026-04-16 12:43 42.69635 23.41881 1749 ft 118 kts 94°
2026-04-16 12:44 42.69567 23.43186 2152 ft 145 kts 93°
2026-04-16 12:44 42.69527 23.44562 2942 ft 154 kts 93°
2026-04-16 12:44 42.69478 23.46142 3595 ft 180 kts 82°
2026-04-16 12:44 42.69776 23.47907 4091 ft 203 kts 69°
2026-04-16 12:45 42.70663 23.49459 4600 ft 223 kts 36°
2026-04-16 12:45 42.72204 23.50188 5034 ft 252 kts
2026-04-16 12:45 42.73994 23.49711 5664 ft 273 kts 336°
2026-04-16 12:45 42.75527 23.48192 5918 ft 278 kts 315°
2026-04-16 12:46 42.76522 23.45947 5975 ft 280 kts 287°
2026-04-16 12:46 42.76812 23.43319 5985 ft 281 kts 274°
2026-04-16 12:46 42.76924 23.40686 5979 ft 279 kts 273°
2026-04-16 12:46 42.77057 23.38118 5891 ft 264 kts 279°
2026-04-16 12:47 42.77389 23.35716 5761 ft 252 kts 283°
2026-04-16 12:47 42.77745 23.33425 5640 ft 241 kts 283°
2026-04-16 12:47 42.78079 23.31230 5441 ft 233 kts 283°
2026-04-16 12:47 42.78400 23.29083 5032 ft 230 kts 283°
2026-04-16 12:48 42.78516 23.26988 4897 ft 216 kts 261°
2026-04-16 12:48 42.78018 23.25117 4604 ft 209 kts 233°
2026-04-16 12:48 42.77001 23.23761 4215 ft 205 kts 207°
2026-04-16 12:48 42.75710 23.23152 3981 ft 191 kts 182°
2026-04-16 12:49 42.74420 23.23195 3972 ft 181 kts 174°
2026-04-16 12:49 42.73174 23.23311 3986 ft 178 kts 171°
2026-04-16 12:49 42.72017 23.23787 3954 ft 172 kts 146°
2026-04-16 12:49 42.71092 23.24859 3867 ft 176 kts 124°
2026-04-16 12:50 42.70592 23.26267 3747 ft 162 kts 102°
2026-04-16 12:50 42.70474 23.27722 3531 ft 147 kts 93°
2026-04-16 12:50 42.70394 23.29077 3333 ft 142 kts 94°
2026-04-16 12:50 42.70316 23.30397 3141 ft 139 kts 94°
2026-04-16 12:51 42.70239 23.31692 2957 ft 138 kts 94°
2026-04-16 12:51 42.70162 23.32995 2788 ft 137 kts 94°
2026-04-16 12:51 42.70086 23.34285 2627 ft 138 kts 94°
2026-04-16 12:51 42.70011 23.35557 2442 ft 135 kts 94°
2026-04-16 12:52 42.69935 23.36840 2264 ft 135 kts 96°
2026-04-16 12:52 42.69856 23.38118 2123 ft 138 kts 96°
2026-04-16 12:52 42.69782 23.39398 1899 ft 135 kts 96°
2026-04-16 12:52 42.69716 23.40666 1756 ft 129 kts 99°
2026-04-16 12:53 42.69650 23.41689 1749 ft 83 kts 95°
2026-04-16 12:53 42.69620 23.42189 1753 ft 43 kts 96°
2026-04-16 12:53 42.69584 23.42539 1751 ft 33 kts 110°
2026-04-16 12:53 42.69479 23.42755 1744 ft 22 kts 148°
2026-04-16 12:54 42.69408 23.42647 1745 ft 19 kts 269°
2026-04-16 12:54 42.69411 23.42476 1753 ft 17 kts 252°
2026-04-16 12:54 42.69315 23.42421 1747 ft 17 kts 186°
2026-04-16 12:54 42.69230 23.42327 1746 ft 17 kts 252°
2026-04-16 12:55 42.69192 23.42173 1750 ft 18 kts 251°
2026-04-16 12:55 42.69158 23.42013 1747 ft 17 kts 253°
2026-04-16 12:55 42.69123 23.41853 1750 ft 18 kts 253°
2026-04-16 12:55 42.69084 23.41682 1750 ft 20 kts 252°
2026-04-16 12:56 42.69106 23.41590 1749 ft 6 kts 343°
2026-04-16 12:56 42.69144 23.41572 1752 ft 5 kts 340°
2026-04-16 12:56 42.69158 23.41547 1750 ft 2 kts 262°
2026-04-16 12:56 42.69154 23.41530 1750 ft 2 kts 253°
2026-04-16 12:57 42.69149 23.41508 1749 ft 2 kts 251°
2026-04-16 12:57 42.69145 23.41492 1748 ft 1 kts 251°
2026-04-16 12:57 42.69136 23.41456 1752 ft 0 kts 252°
2026-04-16 12:57 42.69135 23.41453 1752 ft 0 kts 252°